Regional Weather Roundup
Issued by NWS

Home | Current Version | Previous Version | Text Only | Print | Product List | Glossary Off
Versions: 1 2 3 4 5 6 7 8 9 10 11 12 13 14 15 16 17 18 19 20 21 22 23 24 25 26 27 28 29 30 31 32 33 34 35 36 37 38 39 40 41 42 43 44 45 46 47 48 49 50

000
ASUS43 KMPX 282101
RWRMN
WEATHER ROUNDUP FOR MINNESOTA
NATIONAL WEATHER SERVICE TWIN CITIES/CHANHASSEN MN
300 PM CST FRI NOV 28 2014


NOTE: "FAIR" INDICATES FEW OR NO CLOUDS BELOW 12,000 FEET WITH NO
SIGNIFICANT WEATHER AND/OR OBSTRUCTIONS TO VISIBILITY. N/A MEANS
CURRENT SKY AND/OR WEATHER CONDITIONS ARE NOT AVAILABLE.

MNZ060>063-068>070-282200-
   Twin Cities Metro

CITY           SKY/WX    TMP DP  RH WIND       PRES   REMARKS
TWIN CITIES    CLOUDY    22  15  75 SE10      29.85F WCI  11
ST PAUL        PTSUNNY   22  15  75 SE10      29.87F WCI  11
CRYSTAL        CLOUDY    23  14  68 E6        29.85R WCI  16
LAKEVILLE      MOSUNNY   21  16  79 SE9       29.83F WCI  11
EDEN PRAIRIE   CLOUDY    23  15  71 SE10      29.83F WCI  12
SOUTH ST PAUL  CLOUDY    24  16  71 SE7       29.85F WCI  15
LAKE ELMO      FLURRIES  23  18  80 S8        29.86S WCI  14
$$
MNZ001>005-007-008-013>017-022>024-027-028-282200-
   Northwest Minnesota

CITY           SKY/WX    TMP DP  RH WIND       PRES   REMARKS
BEMIDJI        CLOUDY    13   8  77 E8        29.81S WCI   2
HALLOCK          N/A     18  10  73 SE12      29.80F WCI   5
ROSEAU         MOSUNNY   16   9  73 E13       29.83F WCI   2
WARROAD        PTSUNNY   14   9  79 NE9       29.86S WCI   2
THIEF RVR FALL CLOUDY    16  10  79 E12       29.79F WCI   3
CROOKSTON      CLOUDY    16  10  79 SE8       29.83R WCI   5
FOSSTON        CLOUDY    16   7  67 E8        29.79F WCI   5
DETROIT LAKES  CLOUDY    18  12  79 SE10      29.79R WCI   6
MOORHEAD       MOSUNNY   19  12  73 E6        29.81F WCI  11
PARK RAPIDS    CLOUDY    15   8  73 SE9       29.78F WCI   3
MAHNOMEN       CLOUDY    17   8  70 E7        29.78F WCI   7
$$
MNZ006-009>011-018-025>026-282200-
   North Central Minnesota

CITY           SKY/WX    TMP DP  RH WIND       PRES   REMARKS
BAUDETTE       FLURRIES  15   7  70 E12       29.84F WCI   2
FLAG ISLAND    MOCLDY    12   5  73 E6        29.86F WCI   3
INTL FALLS     CLOUDY    15   7  70 E9        29.88F WCI   3
BIG FORK       MOSUNNY   16   9  73 E6        29.85F WCI   7
LONGVILLE      CLOUDY    14   9  79 E6        29.82S WCI   5
GRAND RAPIDS   CLOUDY    12   7  79 E6        29.82F WCI   3
CRANE LAKE     CLOUDY    16   9  73 CALM      29.91F
ORR            FLURRIES  16   9  73 CALM      29.85S
COOK           FLURRIES  16  10  79 E5        29.87F WCI   9
WALKER         CLOUDY    13   7  76 E7        29.81F WCI   3
$$
MNZ012-019>021-037-282200-
   Northeast Minnesota

CITY           SKY/WX    TMP DP  RH WIND       PRES   REMARKS
DULUTH         LGT SNOW  15   9  76 SE5       29.86F WCI   8
ELY            LGT SNOW  18  12  79 E7        29.87F WCI   8
HIBBING        CLOUDY    17   8  67 SE10      29.85F WCI   5
EVELETH        MIX PCPN  18  12  79 SE7       29.87F WCI   8
DULUTH HARBOR  CLOUDY    18  12  79 CALM      29.94S
TWO HARBORS    LGT SNOW  19  14  79 CALM      29.89R
SILVER BAY     PTCLDY    19  16  86 E3        29.88F
GRAND MARAIS     N/A     23  13  65 E9        29.97F WCI  13
G MARAIS ARPRT CLOUDY    16   9  73 SE3       29.88F
$$
MNZ029>031-032-039>041-046>048-054>057-064-282200-
   West Central Minnesota

CITY           SKY/WX    TMP DP  RH WIND       PRES   REMARKS
FERGUS FALLS   PTSUNNY   16   9  73 SE8       29.81S WCI   5
WHEATON        PTSUNNY   18  12  79 E14       29.78F WCI   4
MORRIS         MOSUNNY   19  12  73 E14       29.75F WCI   6
ALEXANDRIA     CLOUDY    16  10  77 SE12      29.76F WCI   3
ELBOW LAKE     CLOUDY    16  11  80 E10       29.76F HAZE    WCI   4
WADENA         PTSUNNY   16   9  73 E10       29.78F WCI   3
GLENWOOD       MOSUNNY   18  12  79 E16       29.77F WCI   3
APPLETON       MOSUNNY   19  16  86 E12       29.76F WCI   7
BENSON         MOSUNNY   19  14  79 SE8G16    29.76F WCI   9
ORTONVILLE     MOSUNNY   18  12  79 SE8       29.75F WCI   7
MADISON        PTSUNNY   21  18  86 E9        29.75F WCI  11
WILLMAR        FAIR      19  14  79 E14       29.78F WCI   6
$$
MNZ033>034-036-042>043-049>051-058-059-282200-
   Central Minnesota

CITY           SKY/WX    TMP DP  RH WIND       PRES   REMARKS
ST CLOUD       CLOUDY    20  12  71 E5        29.83F WCI  13
SAUK CENTRE    CLOUDY    17  12  81 E10       29.79F WCI   4
PAYNESVILLE    CLOUDY    17  12  80 NE9       29.80F WCI   5
AITKIN         CLOUDY    19  10  68 E6        29.82F WCI  11
PINE RIVER     PTSUNNY   16   9  73 E7        29.85F WCI   6
BRAINERD       CLOUDY    14   9  80 E7        29.83F WCI   4
STAPLES        MOSUNNY   16   9  73 E3        29.80F
LONG PRAIRIE   CLOUDY    16  10  79 E8        29.79F WCI   5
LITTLE FALLS   LGT SNOW  18  10  73 E8        29.82F WCI   7
LITCHFIELD     MOSUNNY   21  18  86 E13       29.80F WCI   9
BUFFALO        CLOUDY    21  14  75 E7        29.84S WCI  12
MAPLE LAKE     CLOUDY    22  16  78 E7        29.83F WCI  13
$$
MNZ037-044-045-052-053-282200-
   East Central Minnesota

CITY           SKY/WX    TMP DP  RH WIND       PRES   REMARKS
PRINCETON      FLURRIES  19  14  79 NE6       29.84S WCI  11
MORA             N/A    N/A N/A N/A MISG        N/A
CAMBRIDGE      FLURRIES  21  10  63 E7        29.84S WCI  13
RUSH CITY      CLOUDY    19  12  75 E3        29.87S
MOOSE LAKE     CLOUDY    18  10  73 E6        29.85F WCI   9
HINCKLEY       CLOUDY    19  12  73 CALM      29.86F
CLOQUET        FLURRIES  14   9  79 E6        29.86F WCI   5
MCGREGOR       CLOUDY    19  12  73 E6        29.85F WCI  11
$$
MNZ071>073-080-081-089-090-097-098-282200-
   Southwest Minnesota

CITY           SKY/WX    TMP DP  RH WIND       PRES   REMARKS
MONTEVIDEO     PTSUNNY   19  16  86 SE9       29.76F WCI   9
GRANITE FALLS  PTSUNNY   22  17  79 E8        29.76F WCI  13
CANBY          PTSUNNY   20  17  86 E8        29.75R WCI  11
MARSHALL       PTSUNNY   21  16  79 E13       29.71F WCI   9
REDWOOD FALLS  CLOUDY    22  17  81 E10       29.76F WCI  11
OLIVIA         PTSUNNY   21  18  86 E9        29.77S WCI  11
PIPESTONE      FAIR      34  27  75 SE10      29.65F WCI  26
WINDOM         CLOUDY    25  21  86 SE10      29.72S WCI  15
WORTHINGTON    MOSUNNY   28  25  86 E13       29.70F WCI  18
JACKSON        CLOUDY    27  21  80 SE12      29.72F WCI  16
TRACY          PTSUNNY   26  21  82 E9        29.72F WCI  16
SLAYTON        PTSUNNY   29  25  84 SE12      29.69F WCI  20
$$
MNZ065>067-074>077-082>085-091>093-282200-
   South Central Minnesota

CITY           SKY/WX    TMP DP  RH WIND       PRES   REMARKS
MANKATO        CLOUDY    23  16  74 SE13      29.80F WCI  11
NEW ULM        PTSUNNY   21  19  93 SE8       29.78F WCI  12
ST JAMES       PTSUNNY   25  19  80 E10       29.76F WCI  15
FAIRMONT       CLOUDY    25  19  80 SE13      29.74F WCI  13
GLENCOE        MOSUNNY   22  19  85 E9        29.81S WCI  12
FARIBAULT      FAIR      25  19  80 SE8       29.83S WCI  16
OWATONNA       MOSUNNY   23  18  80 SE6       29.81F WCI  16
WASECA         PTSUNNY   23  18  80 E9        29.82F WCI  13
ALBERT LEA     PTSUNNY   23  19  86 SE10      29.79F WCI  12
$$
MNZ078>079-086>088-094>096-282200-
   Southeast Minnesota

CITY           SKY/WX    TMP DP  RH WIND       PRES   REMARKS
ROCHESTER      PTSUNNY   23  18  81 SE12      29.83S WCI  12
RED WING       PTSUNNY   25  16  68 SE6       29.87R WCI  18
STANTON        PTSUNNY   25  18  75 SE5       29.84R WCI  19
DODGE CENTER   MOSUNNY   23  19  86 SE12      29.81F WCI  12
WINONA         MIX PCPN  28  19  69 SE7       29.88F WCI  21
AUSTIN         PTSUNNY   23  19  86 SE8       29.81F WCI  14
PRESTON        PTSUNNY   24  19  81 SE6       29.85R WCI  17
$$
ABBREVIATIONS USED IN REMARKS
   TC - TEMPERATURES IN CELSIUS
  WCI - WIND CHILL INDEX
   HX - HEAT INDEX
  VSB - VISIBILITY
$$



USA.gov is the U.S. government's official web portal to all federal, state and local government web resources and services.